North Vernon, Indiana, United States (47265)
Lat: 39.01N, Lon: 85.62W
Wx Zone: INZ072
Local Info
Past Weather Observations for Tuesday, October 28, 2014

NOTE: This archive is for the closest National Weather Service station to North Vernon. Information may differ from the station used for current weather conditions.

Click here for Long-term Archive

Time Weather Temperature Dewpoint Humidity Pressure Winds Precip Visibility
23:53
Clear
52°F / 11°C 37°F / 3°C 58% 30.04 in
(1017 mb)
W 8.1 mph
(W 13 kph)
- 10SM
22:53
Clear
52°F / 11°C 39°F / 4°C 62% 30.04 in
(1017 mb)
SSW 6.9 mph
(SSW 11 kph)
- 10SM
21:53
Clear
54°F / 12°C 41°F / 5°C 63% 30.04 in
(1017 mb)
SSW 6.9 mph
(SSW 11 kph)
- 10SM
20:53
Clear
54°F / 12°C 41°F / 5°C 63% 30.01 in
(1016 mb)
SSW 6.9 mph
(SSW 11 kph)
- 10SM
19:53
Clear
54°F / 12°C 43°F / 6°C 67% 30.01 in
(1016 mb)
SSW 6.9 mph
(SSW 11 kph)
- 10SM
18:53
Clear
54°F / 12°C 43°F / 6°C 67% 30.01 in
(1016 mb)
SSW 6.9 mph
(SSW 11 kph)
- 10SM
17:53
Clear
57°F / 14°C 43°F / 6°C 59% 29.98 in
(1015 mb)
SSW 8.1 mph
(SSW 13 kph)
- 10SM
16:53
Clear
61°F / 16°C 43°F / 6°C 52% 29.98 in
(1015 mb)
W 17.3 mph
(W 28 kph)
- 10SM
15:53
Clear
63°F / 17°C 43°F / 6°C 49% 29.95 in
(1014 mb)
W 12.7 mph
(W 20 kph)
- 10SM
14:53
Clear
63°F / 17°C 48°F / 9°C 59% 29.95 in
(1014 mb)
SSW 9.2 mph
(SSW 15 kph)
- 10SM
13:53
Clear
61°F / 16°C 46°F / 8°C 59% 29.95 in
(1014 mb)
W 9.2 mph
(W 15 kph)
- 10SM
12:53
Mostly Cloudy
59°F / 15°C 52°F / 11°C 77% 29.95 in
(1014 mb)
SSW 9.2 mph
(SSW 15 kph)
0.00 in
(0.00 mm)
10SM
11:53
Overcast
Light Rain
57°F / 14°C 54°F / 12°C 88% 29.95 in
(1014 mb)
WNW 10.4 mph
(WNW 17 kph)
0.02 in
(0.51 mm)
8SM
11:01
Overcast
57°F / 14°C 54°F / 12°C 88% 29.95 in
(1014 mb)
NW 13.8 mph
(NW 22 kph)
0.00 in
(0.00 mm)
10SM
10:53
Overcast
Light Rain
59°F / 15°C 54°F / 12°C 82% 29.95 in
(1014 mb)
WNW 19.6 mph
(WNW 32 kph)
0.14 in
(3.56 mm)
10SM
10:45
Overcast
Light Rain
59°F / 15°C 54°F / 12°C 82% 29.92 in
(1013 mb)
NW 17.3 mph
(NW 28 kph)
0.14 in
(3.56 mm)
7SM
10:38
Overcast
Light Rain
61°F / 16°C 55°F / 13°C 83% 29.92 in
(1013 mb)
NW 20.7 mph
(NW 33 kph)
0.14 in
(3.56 mm)
5SM
10:25
Overcast
Rain
63°F / 17°C 61°F / 16°C 94% 29.92 in
(1013 mb)
SSW 13.8 mph
(SSW 22 kph)
0.12 in
(3.05 mm)
2SM
10:09
Overcast
Heavy Rain
63°F / 17°C 61°F / 16°C 94% 29.92 in
(1013 mb)
SSW 11.5 mph
(SSW 19 kph)
0.06 in
(1.52 mm)
1 3/4SM
10:06
Overcast
Heavy Rain
63°F / 17°C 61°F / 16°C 94% 29.92 in
(1013 mb)
SSW 11.5 mph
(SSW 19 kph)
0.04 in
(1.02 mm)
2 1/2SM
09:53
Overcast
Light Rain
63°F / 17°C 61°F / 16°C 94% 29.89 in
(1012 mb)
SW 11.5 mph
(SW 19 kph)
0.09 in
(2.29 mm)
8SM
08:53
Overcast
Light Rain
63°F / 17°C 57°F / 14°C 83% 29.89 in
(1012 mb)
SW 6.9 mph
(SW 11 kph)
0.01 in
(0.25 mm)
9SM
07:53
Overcast
Light Rain
64°F / 18°C 59°F / 15°C 83% 29.86 in
(1011 mb)
S 9.2 mph
(S 15 kph)
0.05 in
(1.27 mm)
10SM
06:53
Overcast
Light Rain
66°F / 19°C 59°F / 15°C 78% 29.89 in
(1012 mb)
SSW 13.8 mph
(SSW 22 kph)
0.08 in
(2.03 mm)
7SM
05:53
Overcast
70°F / 21°C 57°F / 14°C 64% 29.83 in
(1010 mb)
SW 15 mph
(SW 24 kph)
- 10SM
04:53
Clear
70°F / 21°C 57°F / 14°C 64% 29.83 in
(1010 mb)
SW 16.1 mph
(SW 26 kph)
- 10SM
03:53
Clear
70°F / 21°C 55°F / 13°C 60% 29.83 in
(1010 mb)
SW 16.1 mph
(SW 26 kph)
- 10SM
02:53
Clear
72°F / 22°C 55°F / 13°C 57% 29.83 in
(1010 mb)
SW 16.1 mph
(SW 26 kph)
- 10SM
01:53
Clear
72°F / 22°C 55°F / 13°C 57% 29.86 in
(1011 mb)
SW 16.1 mph
(SW 26 kph)
- 10SM
00:53
Clear
72°F / 22°C 55°F / 13°C 57% 29.86 in
(1011 mb)
SW 15 mph
(SW 24 kph)
- 10SM
Time Weather Temperature Dewpoint Humidity Pressure Winds Precip Visibility


Weather for websites

WeatherForYou.com, LLC is not responsible for any damages or problems caused by this service. Current weather conditions are obtained from the closest station including government and personal stations which may have varying degrees of accuracy. Weather forecasts are derived from the NOAA NDFD. Like all things, this site belongs to Jesus Christ... He just trusts me to maintain it. If you have any questions or comments email webmaster@weatherforyou.com

Copyright © 2014, WeatherForYou.com LLC. All rights reserved.